| time (UTC) | temp F | wind direction | speed MPH | gust MPH | rain 1hr in | rain 24hr in | rain mn in | humidity % | barometer mb |
| 20260905123413 | 70 | 134 | 0.0 | 0.0 | 0.00 | 0.00 | 0.00 | 98 | 1016.5 |
| 20260905122908 | 70 | 135 | 0.0 | 0.0 | 0.00 | 0.00 | 0.00 | 98 | 1016.5 |
| 20260905122408 | 70 | 135 | 0.0 | 0.0 | 0.00 | 0.00 | 0.00 | 98 | 1016.4 |
| 20260905121903 | 70 | 135 | 0.0 | 0.0 | 0.00 | 0.00 | 0.00 | 99 | 1016.4 |
| 20260905121359 | 70 | 134 | 0.0 | 0.0 | 0.00 | 0.00 | 0.00 | 99 | 1016.3 |
| 20260905120858 | 70 | 149 | 0.0 | 0.0 | 0.00 | 0.00 | 0.00 | 99 | 1016.2 |
| 20260905120358 | 70 | 146 | 0.0 | 0.0 | 0.00 | 0.00 | 0.00 | 99 | 1016.1 |
| 20260905115853 | 70 | 135 | 0.0 | 0.0 | 0.00 | 0.00 | 0.00 | 99 | 1016.2 |
| 20260905115352 | 70 | 129 | 0.0 | 0.0 | 0.00 | 0.00 | 0.00 | 99 | 1016.1 |
| 20260905114847 | 69 | 133 | 0.0 | 0.0 | 0.00 | 0.00 | 0.00 | 99 | 1016.1 |
| 20260905114346 | 69 | 125 | 0.0 | 0.0 | 0.00 | 0.00 | 0.00 | 99 | 1016.0 |
| 20260905113845 | 69 | 126 | 0.0 | 0.0 | 0.00 | 0.00 | 0.00 | 99 | 1016.1 |
| 20260905113341 | 69 | 137 | 0.0 | 0.0 | 0.00 | 0.00 | 0.00 | 99 | 1016.0 |
| 20260905112836 | 69 | 135 | 0.0 | 0.0 | 0.00 | 0.00 | 0.00 | 99 | 1016.0 |
| 20260905112331 | 69 | 129 | 1.0 | 1.0 | 0.00 | 0.00 | 0.00 | 99 | 1015.7 |
| 20260905111826 | 69 | 137 | 0.0 | 0.0 | 0.00 | 0.00 | 0.00 | 99 | 1015.7 |
| 20260905111320 | 69 | 139 | 0.0 | 0.0 | 0.00 | 0.00 | 0.00 | 99 | 1015.5 |
| 20260905110821 | 69 | 143 | 0.0 | 0.0 | 0.00 | 0.00 | 0.00 | 99 | 1015.6 |
| 20260905110320 | 69 | 147 | 0.0 | 0.0 | 0.00 | 0.00 | 0.00 | 99 | 1015.6 |
| 20260905105815 | 69 | 144 | 0.0 | 0.0 | 0.00 | 0.00 | 0.00 | 99 | 1015.4 |
| 20260905105314 | 69 | 134 | 0.0 | 0.0 | 0.00 | 0.00 | 0.00 | 99 | 1015.5 |
| 20260905104809 | 69 | 142 | 0.0 | 0.0 | 0.00 | 0.00 | 0.00 | 99 | 1015.5 |
| 20260905104306 | 69 | 139 | 0.0 | 0.0 | 0.00 | 0.00 | 0.00 | 99 | 1015.4 |
| 20260905103805 | 69 | 148 | 0.0 | 0.0 | 0.00 | 0.00 | 0.00 | 99 | 1015.4 |
| 20260905103301 | 69 | 134 | 0.0 | 0.0 | 0.00 | 0.00 | 0.00 | 99 | 1015.4 |
| 20260905102756 | 69 | 126 | 0.0 | 0.0 | 0.00 | 0.00 | 0.00 | 99 | 1015.4 |
| 20260905102253 | 69 | 136 | 0.0 | 0.0 | 0.00 | 0.00 | 0.00 | 99 | 1015.4 |
| 20260905101752 | 69 | 138 | 0.0 | 0.0 | 0.00 | 0.00 | 0.00 | 99 | 1015.3 |
| 20260905101250 | 69 | 136 | 0.0 | 0.0 | 0.00 | 0.00 | 0.00 | 99 | 1015.1 |
| 20260905100745 | 69 | 138 | 0.0 | 0.0 | 0.00 | 0.00 | 0.00 | 99 | 1015.0 |
| 20260905100241 | 68 | 138 | 0.0 | 0.0 | 0.00 | 0.00 | 0.00 | 99 | 1015.1 |
| 20260905095736 | 68 | 138 | 0.0 | 0.0 | 0.00 | 0.00 | 0.00 | 99 | 1014.9 |
| 20260905095235 | 68 | 138 | 0.0 | 0.0 | 0.00 | 0.00 | 0.00 | 99 | 1015.0 |
| 20260905094730 | 68 | 138 | 0.0 | 0.0 | 0.00 | 0.00 | 0.00 | 99 | 1015.0 |
| 20260905094225 | 68 | 138 | 0.0 | 0.0 | 0.00 | 0.00 | 0.00 | 99 | 1014.9 |
| 20260905093725 | 68 | 138 | 0.0 | 0.0 | 0.00 | 0.00 | 0.00 | 99 | 1015.0 |
| 20260905093221 | 68 | 138 | 0.0 | 0.0 | 0.00 | 0.00 | 0.00 | 99 | 1014.8 |
| 20260905092716 | 68 | 138 | 0.0 | 0.0 | 0.00 | 0.00 | 0.00 | 99 | 1014.9 |
| 20260905092211 | 68 | 138 | 0.0 | 0.0 | 0.00 | 0.00 | 0.00 | 99 | 1015.0 |
| 20260905091710 | 68 | 138 | 0.0 | 0.0 | 0.00 | 0.00 | 0.00 | 99 | 1014.8 |
| 20260905091206 | 68 | 138 | 0.0 | 0.0 | 0.00 | 0.00 | 0.00 | 99 | 1014.9 |
| 20260905090705 | 68 | 138 | 0.0 | 0.0 | 0.00 | 0.00 | 0.00 | 99 | 1014.7 |
| 20260905090201 | 68 | 138 | 0.0 | 0.0 | 0.00 | 0.00 | 0.00 | 99 | 1014.8 |
| 20260905085659 | 68 | 138 | 0.0 | 0.0 | 0.00 | 0.00 | 0.00 | 99 | 1015.0 |
| 20260905085155 | 68 | 138 | 0.0 | 0.0 | 0.00 | 0.00 | 0.00 | 99 | 1015.0 |
| 20260905084654 | 69 | 138 | 0.0 | 0.0 | 0.00 | 0.00 | 0.00 | 99 | 1015.1 |
| 20260905084149 | 69 | 138 | 0.0 | 0.0 | 0.00 | 0.00 | 0.00 | 99 | 1015.0 |
| 20260905083643 | 69 | 138 | 0.0 | 0.0 | 0.00 | 0.00 | 0.00 | 99 | 1015.0 |
| 20260905083140 | 69 | 138 | 0.0 | 0.0 | 0.00 | 0.00 | 0.00 | 99 | 1015.1 |
| 20260905082636 | 69 | 138 | 0.0 | 0.0 | 0.00 | 0.00 | 0.00 | 99 | 1015.1 |
| 20260905082131 | 69 | 138 | 0.0 | 0.0 | 0.00 | 0.00 | 0.00 | 99 | 1014.9 |
| 20260905081631 | 69 | 138 | 0.0 | 0.0 | 0.00 | 0.00 | 0.00 | 99 | 1015.0 |
| 20260905081131 | 69 | 138 | 0.0 | 0.0 | 0.00 | 0.00 | 0.00 | 99 | 1015.0 |
| 20260905080626 | 69 | 138 | 0.0 | 0.0 | 0.00 | 0.00 | 0.00 | 99 | 1014.8 |
| 20260905080121 | 69 | 138 | 0.0 | 0.0 | 0.00 | 0.00 | 0.00 | 99 | 1014.6 |
| 20260905075620 | 69 | 138 | 0.0 | 0.0 | 0.00 | 0.00 | 0.00 | 99 | 1014.9 |
| 20260905075114 | 69 | 138 | 0.0 | 0.0 | 0.00 | 0.00 | 0.00 | 99 | 1015.0 |
| 20260905074613 | 69 | 138 | 0.0 | 0.0 | 0.00 | 0.00 | 0.00 | 99 | 1014.9 |
| 20260905074109 | 69 | 138 | 0.0 | 0.0 | 0.00 | 0.00 | 0.00 | 99 | 1014.9 |
| 20260905073605 | 69 | 138 | 0.0 | 0.0 | 0.00 | 0.00 | 0.00 | 99 | 1015.0 |
| 20260905073100 | 69 | 138 | 0.0 | 0.0 | 0.00 | 0.00 | 0.00 | 99 | 1014.9 |
| 20260905072559 | 69 | 138 | 0.0 | 0.0 | 0.00 | 0.00 | 0.00 | 99 | 1014.9 |
| 20260905072055 | 69 | 138 | 0.0 | 0.0 | 0.00 | 0.00 | 0.00 | 99 | 1014.8 |
| 20260905071552 | 70 | 138 | 0.0 | 0.0 | 0.00 | 0.00 | 0.00 | 99 | 1014.9 |
| 20260905071052 | 69 | 138 | 0.0 | 0.0 | 0.00 | 0.00 | 0.00 | 99 | 1014.8 |
| 20260905070547 | 69 | 138 | 0.0 | 0.0 | 0.00 | 0.00 | 0.00 | 99 | 1015.0 |
| 20260905070043 | 69 | 138 | 0.0 | 0.0 | 0.00 | 0.00 | 0.00 | 99 | 1014.9 |
| 20260905065540 | 69 | 138 | 0.0 | 0.0 | 0.00 | 0.00 | 0.00 | 99 | 1014.9 |
| 20260905065036 | 69 | 138 | 0.0 | 0.0 | 0.00 | 0.00 | 0.00 | 99 | 1015.1 |
| 20260905064535 | 69 | 138 | 0.0 | 0.0 | 0.00 | 0.00 | 0.00 | 99 | 1015.1 |
| 20260905064031 | 70 | 138 | 0.0 | 0.0 | 0.00 | 0.00 | 0.00 | 99 | 1014.8 |
| 20260905063530 | 70 | 138 | 0.0 | 0.0 | 0.00 | 0.00 | 0.00 | 99 | 1014.8 |
| 20260905063026 | 70 | 138 | 0.0 | 0.0 | 0.00 | 0.00 | 0.00 | 99 | 1014.8 |
| 20260905062527 | 70 | 138 | 0.0 | 0.0 | 0.00 | 0.00 | 0.00 | 99 | 1015.1 |
| 20260905062027 | 70 | 138 | 0.0 | 0.0 | 0.00 | 0.00 | 0.00 | 99 | 1015.1 |
| 20260905061522 | 70 | 138 | 0.0 | 0.0 | 0.00 | 0.00 | 0.00 | 99 | 1015.0 |
| 20260905061021 | 70 | 138 | 0.0 | 0.0 | 0.00 | 0.00 | 0.00 | 99 | 1015.1 |
| 20260905060517 | 70 | 138 | 0.0 | 0.0 | 0.00 | 0.00 | 0.00 | 99 | 1015.0 |
| 20260905060013 | 70 | 139 | 0.0 | 0.0 | 0.00 | 0.00 | 0.00 | 99 | 1015.0 |
| 20260905055511 | 70 | 139 | 0.0 | 0.0 | 0.00 | 0.00 | 0.00 | 99 | 1015.2 |
| 20260905055006 | 71 | 138 | 0.0 | 0.0 | 0.00 | 0.00 | 0.00 | 98 | 1015.4 |
| 20260905054502 | 70 | 124 | 0.0 | 0.0 | 0.00 | 0.00 | 0.00 | 98 | 1015.2 |
| 20260905053957 | 70 | 124 | 0.0 | 0.0 | 0.00 | 0.00 | 0.00 | 98 | 1015.4 |
| 20260905053451 | 70 | 124 | 0.0 | 0.0 | 0.00 | 0.00 | 0.00 | 98 | 1015.3 |
| 20260905052947 | 70 | 124 | 0.0 | 0.0 | 0.00 | 0.00 | 0.00 | 98 | 1015.3 |
| 20260905052446 | 70 | 124 | 0.0 | 0.0 | 0.00 | 0.00 | 0.00 | 98 | 1015.1 |
| 20260905051946 | 70 | 124 | 0.0 | 0.0 | 0.00 | 0.00 | 0.00 | 98 | 1014.9 |
| 20260905051441 | 70 | 124 | 0.0 | 0.0 | 0.00 | 0.00 | 0.00 | 98 | 1014.9 |
| 20260905050939 | 70 | 124 | 0.0 | 0.0 | 0.00 | 0.00 | 0.00 | 98 | 1015.0 |
| 20260905050434 | 70 | 124 | 0.0 | 0.0 | 0.00 | 0.00 | 0.00 | 98 | 1014.8 |
| 20260905045930 | 70 | 124 | 0.0 | 0.0 | 0.00 | 0.00 | 0.00 | 97 | 1014.8 |
| 20260905045425 | 71 | 124 | 0.0 | 0.0 | 0.00 | 0.00 | 0.00 | 98 | 1015.0 |
| 20260905044921 | 71 | 124 | 0.0 | 0.0 | 0.00 | 0.00 | 0.00 | 97 | 1015.1 |
| 20260905044415 | 71 | 124 | 0.0 | 0.0 | 0.00 | 0.00 | 0.00 | 97 | 1015.0 |
| 20260905043915 | 71 | 124 | 0.0 | 0.0 | 0.00 | 0.00 | 0.00 | 97 | 1015.1 |
| 20260905043409 | 71 | 124 | 0.0 | 0.0 | 0.00 | 0.00 | 0.00 | 97 | 1015.1 |
| 20260905042909 | 71 | 124 | 0.0 | 0.0 | 0.00 | 0.00 | 0.00 | 97 | 1015.5 |
| 20260905042358 | 71 | 124 | 0.0 | 0.0 | 0.00 | 0.00 | 0.00 | 97 | 1015.5 |
| 20260905041853 | 71 | 124 | 0.0 | 0.0 | 0.00 | 0.00 | 0.00 | 97 | 1015.4 |
| 20260905041349 | 72 | 123 | 0.0 | 0.0 | 0.00 | 0.00 | 0.00 | 97 | 1015.4 |
| 20260905040849 | 72 | 123 | 0.0 | 0.0 | 0.00 | 0.00 | 0.00 | 97 | 1015.4 |
| 20260905040348 | 72 | 123 | 0.0 | 0.0 | 0.00 | 0.00 | 0.00 | 97 | 1015.5 |
| 20260905035847 | 72 | 123 | 0.0 | 0.0 | 0.00 | 0.38 | 0.38 | 97 | 1015.3 |
| 20260905035343 | 72 | 123 | 0.0 | 0.0 | 0.00 | 0.38 | 0.38 | 97 | 1015.3 |
| 20260905034840 | 72 | 123 | 0.0 | 0.0 | 0.00 | 0.38 | 0.38 | 97 | 1015.3 |
| 20260905034335 | 72 | 123 | 0.0 | 0.0 | 0.00 | 0.38 | 0.38 | 97 | 1015.1 |
| 20260905033833 | 72 | 123 | 0.0 | 0.0 | 0.00 | 0.38 | 0.38 | 96 | 1015.3 |
| 20260905033329 | 72 | 123 | 0.0 | 0.0 | 0.00 | 0.38 | 0.38 | 96 | 1015.2 |
| 20260905032828 | 72 | 123 | 0.0 | 0.0 | 0.00 | 0.38 | 0.38 | 96 | 1015.1 |
| 20260905032324 | 72 | 123 | 0.0 | 0.0 | 0.00 | 0.38 | 0.38 | 96 | 1015.3 |
| 20260905031819 | 72 | 123 | 0.0 | 0.0 | 0.00 | 0.38 | 0.38 | 96 | 1015.3 |
| 20260905031315 | 72 | 123 | 0.0 | 0.0 | 0.00 | 0.38 | 0.38 | 96 | 1015.2 |
| 20260905030810 | 72 | 123 | 0.0 | 0.0 | 0.00 | 0.38 | 0.38 | 96 | 1015.2 |
| 20260905030301 | 73 | 123 | 0.0 | 0.0 | 0.00 | 0.38 | 0.38 | 96 | 1015.2 |
| 20260905025759 | 73 | 124 | 0.0 | 0.0 | 0.00 | 0.38 | 0.38 | 96 | 1015.1 |
| 20260905025254 | 73 | 124 | 0.0 | 0.0 | 0.00 | 0.38 | 0.38 | 96 | 1015.3 |
| 20260905024750 | 73 | 124 | 0.0 | 0.0 | 0.00 | 0.38 | 0.38 | 95 | 1015.5 |
| 20260905024246 | 73 | 124 | 0.0 | 0.0 | 0.00 | 0.38 | 0.38 | 95 | 1015.5 |
| 20260905023741 | 73 | 124 | 0.0 | 0.0 | 0.00 | 0.38 | 0.38 | 95 | 1015.4 |
| 20260905023236 | 73 | 124 | 0.0 | 0.0 | 0.00 | 0.38 | 0.38 | 95 | 1015.3 |
| 20260905022735 | 73 | 124 | 0.0 | 0.0 | 0.00 | 0.38 | 0.38 | 95 | 1015.3 |
| 20260905022230 | 73 | 123 | 0.0 | 0.0 | 0.00 | 0.38 | 0.38 | 94 | 1015.2 |
| 20260905021725 | 73 | 123 | 0.0 | 0.0 | 0.00 | 0.38 | 0.38 | 94 | 1015.4 |
| 20260905021220 | 73 | 123 | 0.0 | 0.0 | 0.00 | 0.38 | 0.38 | 94 | 1015.3 |
| 20260905020715 | 73 | 124 | 0.0 | 0.0 | 0.00 | 0.38 | 0.38 | 94 | 1015.4 |
| 20260905020210 | 73 | 124 | 0.0 | 0.0 | 0.00 | 0.38 | 0.38 | 94 | 1015.3 |
| 20260905015708 | 73 | 124 | 0.0 | 0.0 | 0.00 | 0.38 | 0.38 | 93 | 1015.2 |
| 20260905015203 | 73 | 124 | 0.0 | 0.0 | 0.00 | 0.38 | 0.38 | 93 | 1015.4 |
| 20260905014701 | 73 | 123 | 0.0 | 0.0 | 0.00 | 0.38 | 0.38 | 93 | 1015.6 |
| 20260905014157 | 73 | 123 | 0.0 | 0.0 | 0.00 | 0.38 | 0.38 | 92 | 1015.6 |
| 20260905013654 | 73 | 123 | 0.0 | 0.0 | 0.00 | 0.38 | 0.38 | 92 | 1015.5 |
| 20260905013149 | 73 | 123 | 0.0 | 0.0 | 0.00 | 0.38 | 0.38 | 93 | 1015.3 |
| 20260905012644 | 73 | 123 | 0.0 | 0.0 | 0.00 | 0.38 | 0.38 | 92 | 1015.4 |
| 20260905012140 | 74 | 123 | 0.0 | 0.0 | 0.00 | 0.38 | 0.38 | 92 | 1015.4 |
| 20260905011636 | 74 | 123 | 0.0 | 0.0 | 0.00 | 0.38 | 0.38 | 92 | 1015.3 |
| 20260905011132 | 74 | 123 | 0.0 | 0.0 | 0.00 | 0.38 | 0.38 | 91 | 1015.1 |
| 20260905010626 | 74 | 123 | 0.0 | 0.0 | 0.00 | 0.38 | 0.38 | 91 | 1015.1 |
| 20260905010123 | 74 | 123 | 0.0 | 0.0 | 0.00 | 0.38 | 0.38 | 91 | 1015.1 |
| 20260905005618 | 74 | 123 | 0.0 | 0.0 | 0.00 | 0.38 | 0.38 | 91 | 1014.9 |
| 20260905005113 | 74 | 123 | 0.0 | 0.0 | 0.00 | 0.38 | 0.38 | 91 | 1014.8 |
| 20260905004608 | 74 | 123 | 0.0 | 0.0 | 0.00 | 0.38 | 0.38 | 90 | 1014.5 |
| 20260905004103 | 74 | 123 | 0.0 | 0.0 | 0.00 | 0.38 | 0.38 | 90 | 1014.4 |
| 20260905003559 | 74 | 125 | 0.0 | 0.0 | 0.00 | 0.38 | 0.38 | 90 | 1014.4 |
| 20260905003054 | 74 | 138 | 0.0 | 0.0 | 0.00 | 0.38 | 0.38 | 90 | 1014.6 |
| 20260905002549 | 75 | 129 | 0.0 | 0.0 | 0.00 | 0.38 | 0.38 | 90 | 1014.4 |
| 20260905002044 | 75 | 134 | 0.0 | 0.0 | 0.00 | 0.38 | 0.38 | 89 | 1014.5 |
| 20260905001539 | 75 | 126 | 0.0 | 0.0 | 0.00 | 0.38 | 0.38 | 89 | 1014.3 |
| 20260905001038 | 75 | 129 | 0.0 | 0.0 | 0.00 | 0.38 | 0.38 | 89 | 1014.4 |
| 20260905000528 | 75 | 127 | 0.0 | 0.0 | 0.00 | 0.38 | 0.38 | 89 | 1014.4 |
| 20260905000024 | 75 | 129 | 0.0 | 0.0 | 0.00 | 0.38 | 0.38 | 88 | 1014.4 |
| 20260904235519 | 75 | 125 | 1.0 | 1.0 | 0.00 | 0.38 | 0.38 | 89 | 1014.4 |
| 20260904235018 | 76 | 132 | 0.0 | 0.0 | 0.00 | 0.38 | 0.38 | 89 | 1014.4 |
| 20260904234519 | 76 | 132 | 0.0 | 0.0 | 0.00 | 0.38 | 0.38 | 88 | 1014.4 |
| 20260904234015 | 76 | 132 | 0.0 | 0.0 | 0.00 | 0.38 | 0.38 | 88 | 1014.0 |
| 20260904233510 | 76 | 132 | 0.0 | 0.0 | 0.00 | 0.38 | 0.38 | 89 | 1014.3 |
| 20260904233006 | 77 | 132 | 0.0 | 0.0 | 0.00 | 0.38 | 0.38 | 88 | 1014.0 |
| 20260904232502 | 77 | 132 | 0.0 | 0.0 | 0.00 | 0.38 | 0.38 | 88 | 1014.0 |
| 20260904231959 | 77 | 132 | 0.0 | 0.0 | 0.00 | 0.38 | 0.38 | 88 | 1014.0 |
| 20260904231454 | 77 | 131 | 0.0 | 0.0 | 0.00 | 0.38 | 0.38 | 87 | 1013.7 |
| 20260904230949 | 77 | 132 | 0.0 | 0.0 | 0.00 | 0.38 | 0.38 | 87 | 1013.8 |
| 20260904230447 | 78 | 132 | 0.0 | 0.0 | 0.00 | 0.38 | 0.38 | 87 | 1013.9 |
| 20260904225943 | 78 | 132 | 0.0 | 0.0 | 0.00 | 0.38 | 0.38 | 87 | 1013.9 |
| 20260904225440 | 78 | 132 | 0.0 | 0.0 | 0.00 | 0.38 | 0.38 | 87 | 1013.9 |
| 20260904224935 | 78 | 132 | 0.0 | 0.0 | 0.00 | 0.38 | 0.38 | 86 | 1013.9 |
| 20260904224431 | 78 | 132 | 0.0 | 0.0 | 0.00 | 0.38 | 0.38 | 86 | 1014.0 |
| 20260904223930 | 79 | 132 | 0.0 | 0.0 | 0.00 | 0.38 | 0.38 | 86 | 1014.0 |
| 20260904223429 | 79 | 132 | 0.0 | 0.0 | 0.00 | 0.38 | 0.38 | 85 | 1014.1 |
| 20260904222926 | 80 | 136 | 0.0 | 0.0 | 0.00 | 0.38 | 0.38 | 84 | 1014.0 |
| 20260904222421 | 80 | 133 | 0.0 | 0.0 | 0.00 | 0.38 | 0.38 | 84 | 1014.0 |
| 20260904221920 | 81 | 132 | 0.0 | 0.0 | 0.00 | 0.38 | 0.38 | 82 | 1014.1 |
| 20260904221414 | 82 | 134 | 0.0 | 0.0 | 0.00 | 0.38 | 0.38 | 81 | 1014.2 |
| 20260904220910 | 83 | 142 | 0.0 | 0.0 | 0.00 | 0.38 | 0.38 | 80 | 1014.0 |
| 20260904220409 | 84 | 138 | 0.0 | 0.0 | 0.00 | 0.38 | 0.38 | 80 | 1013.9 |
| 20260904215905 | 84 | 138 | 0.0 | 0.0 | 0.00 | 0.38 | 0.38 | 80 | 1013.8 |
| 20260904215400 | 84 | 138 | 0.0 | 0.0 | 0.00 | 0.38 | 0.38 | 80 | 1013.9 |
| 20260904214855 | 84 | 138 | 0.0 | 0.0 | 0.00 | 0.38 | 0.38 | 80 | 1013.8 |
| 20260904214351 | 84 | 138 | 0.0 | 0.0 | 0.00 | 0.38 | 0.38 | 79 | 1013.9 |
| 20260904213850 | 84 | 138 | 0.0 | 0.0 | 0.00 | 0.38 | 0.38 | 81 | 1013.9 |
| 20260904213345 | 83 | 138 | 0.0 | 0.0 | 0.00 | 0.38 | 0.38 | 81 | 1013.8 |
| 20260904212841 | 83 | 138 | 0.0 | 0.0 | 0.00 | 0.38 | 0.38 | 82 | 1014.0 |
| 20260904212340 | 83 | 138 | 0.0 | 0.0 | 0.00 | 0.38 | 0.38 | 81 | 1013.9 |
| 20260904211836 | 83 | 138 | 0.0 | 0.0 | 0.00 | 0.38 | 0.38 | 82 | 1013.7 |
| 20260904211331 | 83 | 139 | 0.0 | 0.0 | 0.00 | 0.38 | 0.38 | 79 | 1013.7 |
| 20260904210820 | 83 | 139 | 0.0 | 0.0 | 0.00 | 0.38 | 0.38 | 81 | 1013.7 |
| 20260904210314 | 83 | 138 | 0.0 | 0.0 | 0.00 | 0.38 | 0.38 | 79 | 1013.4 |
| 20260904205811 | 84 | 138 | 0.0 | 0.0 | 0.00 | 0.38 | 0.38 | 79 | 1013.5 |
| 20260904205306 | 84 | 139 | 0.0 | 0.0 | 0.00 | 0.38 | 0.38 | 78 | 1013.6 |
| 20260904204803 | 83 | 134 | 0.0 | 1.0 | 0.00 | 0.38 | 0.38 | 79 | 1013.5 |
| 20260904204259 | 83 | 131 | 0.0 | 0.0 | 0.00 | 0.38 | 0.38 | 82 | 1013.2 |
| 20260904203755 | 83 | 130 | 0.0 | 0.0 | 0.00 | 0.38 | 0.38 | 82 | 1013.4 |
| 20260904203250 | 82 | 149 | 0.0 | 1.0 | 0.00 | 0.38 | 0.38 | 81 | 1013.4 |
| 20260904202740 | 82 | 135 | 0.0 | 0.0 | 0.00 | 0.38 | 0.38 | 83 | 1013.5 |
| 20260904202236 | 82 | 139 | 0.0 | 0.0 | 0.00 | 0.38 | 0.38 | 84 | 1013.4 |
| 20260904201731 | 82 | 138 | 0.0 | 0.0 | 0.00 | 0.38 | 0.38 | 83 | 1013.5 |
| 20260904201226 | 82 | 138 | 0.0 | 0.0 | 0.00 | 0.38 | 0.38 | 84 | 1013.6 |
| 20260904200721 | 81 | 145 | 0.0 | 0.0 | 0.00 | 0.38 | 0.38 | 87 | 1013.5 |
| 20260904200215 | 80 | 145 | 0.0 | 0.0 | 0.00 | 0.38 | 0.38 | 85 | 1013.6 |
| 20260904195714 | 80 | 137 | 0.0 | 0.0 | 0.00 | 0.38 | 0.38 | 84 | 1013.6 |
| 20260904195213 | 80 | 135 | 0.0 | 0.0 | 0.00 | 0.38 | 0.38 | 85 | 1013.5 |
| 20260904194708 | 80 | 151 | 0.0 | 0.0 | 0.00 | 0.38 | 0.38 | 86 | 1013.5 |
| 20260904194202 | 80 | 152 | 2.0 | 3.0 | 0.00 | 0.38 | 0.38 | 83 | 1013.8 |
| 20260904193657 | 79 | 139 | 0.0 | 0.0 | 0.00 | 0.38 | 0.38 | 88 | 1013.6 |
| 20260904193154 | 79 | 139 | 0.0 | 0.0 | 0.00 | 0.38 | 0.38 | 87 | 1014.2 |
| 20260904192653 | 78 | 138 | 0.0 | 0.0 | 0.00 | 0.38 | 0.38 | 87 | 1014.3 |
| 20260904192148 | 78 | 138 | 0.0 | 0.0 | 0.00 | 0.38 | 0.38 | 89 | 1014.2 |
| 20260904191645 | 78 | 129 | 0.0 | 0.0 | 0.00 | 0.38 | 0.38 | 89 | 1014.1 |
| 20260904191141 | 78 | 129 | 0.0 | 0.0 | 0.00 | 0.38 | 0.38 | 89 | 1014.2 |
| 20260904190637 | 77 | 129 | 0.0 | 0.0 | 0.00 | 0.38 | 0.38 | 89 | 1014.2 |
| 20260904190132 | 77 | 129 | 0.0 | 0.0 | 0.00 | 0.38 | 0.38 | 90 | 1014.4 |
| 20260904185629 | 77 | 129 | 0.0 | 0.0 | 0.00 | 0.38 | 0.38 | 90 | 1014.2 |
| 20260904185124 | 78 | 129 | 0.0 | 0.0 | 0.00 | 0.38 | 0.38 | 88 | 1014.5 |
| 20260904184622 | 78 | 128 | 0.0 | 0.0 | 0.00 | 0.38 | 0.38 | 88 | 1014.2 |
| 20260904184119 | 78 | 128 | 0.0 | 0.0 | 0.00 | 0.38 | 0.38 | 88 | 1014.4 |
| 20260904183614 | 78 | 132 | 0.0 | 0.0 | 0.00 | 0.38 | 0.38 | 87 | 1014.4 |
| 20260904183114 | 78 | 135 | 0.0 | 0.0 | 0.00 | 0.38 | 0.38 | 89 | 1014.3 |
| 20260904182610 | 77 | 145 | 0.0 | 0.0 | 0.00 | 0.38 | 0.38 | 90 | 1014.5 |
| 20260904182110 | 76 | 141 | 0.0 | 0.0 | 0.00 | 0.38 | 0.38 | 92 | 1014.6 |
| 20260904181606 | 75 | 135 | 0.0 | 0.0 | 0.00 | 0.38 | 0.38 | 92 | 1014.9 |
| 20260904181106 | 75 | 147 | 0.0 | 0.0 | 0.00 | 0.38 | 0.38 | 91 | 1014.6 |
| 20260904180600 | 74 | 147 | 0.0 | 0.0 | 0.00 | 0.38 | 0.38 | 93 | 1014.7 |
| 20260904180056 | 74 | 135 | 0.0 | 0.0 | 0.00 | 0.38 | 0.38 | 95 | 1014.8 |
| 20260904175550 | 73 | 132 | 0.0 | 0.0 | 0.00 | 0.38 | 0.38 | 95 | 1014.6 |
| 20260904175048 | 73 | 131 | 0.0 | 0.0 | 0.00 | 0.38 | 0.38 | 94 | 1014.7 |
| 20260904174544 | 73 | 136 | 0.0 | 0.0 | 0.00 | 0.38 | 0.38 | 95 | 1014.5 |
| 20260904174040 | 72 | 138 | 0.0 | 0.0 | 0.00 | 0.38 | 0.38 | 95 | 1014.7 |
| 20260904173540 | 72 | 146 | 0.0 | 0.0 | 0.00 | 0.38 | 0.38 | 96 | 1014.6 |
| 20260904173036 | 72 | 156 | 0.0 | 0.0 | 0.00 | 0.38 | 0.38 | 96 | 1014.5 |
| 20260904172532 | 72 | 146 | 0.0 | 0.0 | 0.00 | 0.38 | 0.38 | 97 | 1014.6 |
| 20260904172031 | 71 | 146 | 0.0 | 0.0 | 0.00 | 0.38 | 0.38 | 96 | 1014.4 |
| 20260904171526 | 71 | 133 | 0.0 | 0.0 | 0.00 | 0.38 | 0.38 | 96 | 1014.5 |
| 20260904171022 | 71 | 138 | 0.0 | 1.0 | 0.00 | 0.38 | 0.38 | 97 | 1014.7 |
| 20260904170517 | 71 | 138 | 0.0 | 0.0 | 0.00 | 0.38 | 0.38 | 97 | 1014.6 |
| 20260904170013 | 70 | 143 | 0.0 | 0.0 | 0.00 | 0.38 | 0.38 | 97 | 1014.6 |
| 20260904165512 | 70 | 156 | 1.0 | 2.0 | 0.00 | 0.38 | 0.38 | 96 | 1014.1 |
| 20260904165011 | 69 | 132 | 0.0 | 0.0 | 0.00 | 0.38 | 0.38 | 97 | 1014.5 |
| 20260904164507 | 69 | 133 | 0.0 | 1.0 | 0.00 | 0.38 | 0.38 | 97 | 1014.6 |
| 20260904164003 | 69 | 136 | 1.0 | 2.0 | 0.05 | 0.38 | 0.38 | 97 | 1015.0 |
| 20260904163502 | 69 | 133 | 1.0 | 2.0 | 0.05 | 0.38 | 0.38 | 97 | 1015.1 |
| 20260904163001 | 69 | 142 | 0.0 | 1.0 | 0.00 | 0.37 | 0.37 | 98 | 1015.1 |
| 20260904162456 | 69 | 131 | 0.0 | 0.0 | 0.00 | 0.37 | 0.37 | 98 | 1015.3 |
| 20260904161952 | 69 | 143 | 0.0 | 0.0 | 0.00 | 0.37 | 0.37 | 98 | 1015.4 |
| 20260904161447 | 69 | 134 | 0.0 | 0.0 | 0.00 | 0.37 | 0.37 | 97 | 1014.9 |
| 20260904160943 | 69 | 136 | 1.0 | 1.0 | 0.00 | 0.37 | 0.37 | 98 | 1015.0 |
| 20260904160443 | 69 | 134 | 0.0 | 0.0 | 0.07 | 0.37 | 0.37 | 98 | 1015.1 |
| 20260904155938 | 69 | 130 | 0.0 | 0.0 | 0.31 | 0.37 | 0.37 | 98 | 1015.0 |
| 20260904155433 | 69 | 132 | 0.0 | 0.0 | 0.24 | 0.36 | 0.36 | 98 | 1015.5 |
| 20260904154931 | 69 | 137 | 0.0 | 0.0 | 0.07 | 0.32 | 0.32 | 98 | 1016.7 |
| 20260904154426 | 69 | 136 | 0.0 | 0.0 | 0.07 | 0.32 | 0.32 | 98 | 1016.2 |
| 20260904153921 | 68 | 146 | 0.0 | 1.0 | 0.00 | 0.31 | 0.31 | 98 | 1015.5 |
| 20260904153416 | 68 | 133 | 0.0 | 0.0 | 0.05 | 0.31 | 0.31 | 98 | 1015.6 |
| 20260904152913 | 68 | 128 | 1.0 | 1.0 | 0.24 | 0.31 | 0.31 | 99 | 1016.3 |
| 20260904152414 | 68 | 138 | 1.0 | 1.0 | 0.40 | 0.29 | 0.29 | 99 | 1016.5 |
| 20260904151913 | 68 | 117 | 0.0 | 1.0 | 0.35 | 0.27 | 0.27 | 99 | 1016.3 |
| 20260904151408 | 68 | 132 | 0.0 | 0.0 | 0.07 | 0.22 | 0.22 | 99 | 1017.2 |
| 20260904150903 | 68 | 132 | 0.0 | 0.0 | 0.00 | 0.21 | 0.21 | 99 | 1017.0 |
| 20260904150358 | 68 | 132 | 0.0 | 0.0 | 0.00 | 0.21 | 0.21 | 99 | 1016.7 |
| 20260904145856 | 68 | 132 | 0.0 | 0.0 | 0.00 | 0.21 | 0.21 | 99 | 1016.9 |
| 20260904145352 | 68 | 128 | 0.0 | 0.0 | 0.00 | 0.21 | 0.21 | 99 | 1017.0 |
| 20260904144848 | 68 | 132 | 0.0 | 0.0 | 0.00 | 0.21 | 0.21 | 99 | 1016.9 |
| 20260904144344 | 68 | 131 | 1.0 | 1.0 | 0.00 | 0.21 | 0.21 | 99 | 1017.0 |
| 20260904143839 | 68 | 138 | 0.0 | 0.0 | 0.00 | 0.21 | 0.21 | 99 | 1017.5 |
| 20260904143336 | 68 | 132 | 0.0 | 0.0 | 0.00 | 0.21 | 0.21 | 99 | 1017.2 |
| 20260904142831 | 68 | 131 | 0.0 | 0.0 | 0.00 | 0.21 | 0.21 | 99 | 1016.7 |
| 20260904142327 | 68 | 126 | 0.0 | 1.0 | 0.00 | 0.21 | 0.21 | 99 | 1017.3 |
| 20260904141821 | 68 | 131 | 0.0 | 0.0 | 0.00 | 0.21 | 0.21 | 99 | 1017.8 |
| 20260904141317 | 68 | 139 | 0.0 | 0.0 | 0.00 | 0.21 | 0.21 | 99 | 1017.8 |
| 20260904140814 | 68 | 132 | 0.0 | 1.0 | 0.00 | 0.21 | 0.21 | 98 | 1017.5 |
| 20260904140308 | 68 | 130 | 0.0 | 0.0 | 0.00 | 0.21 | 0.21 | 98 | 1017.7 |
| 20260904135806 | 68 | 134 | 0.0 | 0.0 | 0.05 | 0.21 | 0.21 | 98 | 1017.8 |
| 20260904135305 | 68 | 144 | 0.0 | 0.0 | 0.24 | 0.21 | 0.21 | 98 | 1017.9 |
| 20260904134758 | 68 | 145 | 0.0 | 0.0 | 0.19 | 0.20 | 0.20 | 98 | 1017.8 |
| 20260904134257 | 68 | 138 | 0.0 | 1.0 | 0.54 | 0.17 | 0.17 | 98 | 1018.2 |
| 20260904133752 | 68 | 145 | 0.0 | 0.0 | 0.73 | 0.17 | 0.17 | 97 | 1018.6 |
| 20260904133248 | 68 | 128 | 0.0 | 1.0 | 0.31 | 0.09 | 0.09 | 95 | 1019.1 |
| 20260904132747 | 69 | 166 | 0.0 | 0.0 | 0.05 | 0.05 | 0.05 | 94 | 1018.8 |
| 20260904132243 | 69 | 132 | 0.0 | 0.0 | 0.00 | 0.04 | 0.04 | 93 | 1017.7 |
| 20260904131742 | 68 | 175 | 1.0 | 3.0 | 0.00 | 0.04 | 0.04 | 93 | 1017.5 |
| 20260904131238 | 68 | 165 | 1.0 | 2.0 | 0.00 | 0.04 | 0.04 | 96 | 1018.7 |
| 20260904130733 | 68 | 170 | 0.0 | 0.0 | 0.00 | 0.04 | 0.04 | 97 | 1018.2 |
| 20260904130232 | 68 | 132 | 0.0 | 0.0 | 0.00 | 0.04 | 0.04 | 97 | 1016.9 |
| 20260904125728 | 68 | 132 | 0.0 | 0.0 | 0.00 | 0.04 | 0.04 | 97 | 1016.4 |
| 20260904125223 | 68 | 137 | 0.0 | 0.0 | 0.00 | 0.04 | 0.04 | 97 | 1016.0 |
| 20260904124718 | 68 | 126 | 0.0 | 0.0 | 0.00 | 0.04 | 0.04 | 97 | 1016.2 |
| 20260904124214 | 68 | 144 | 0.0 | 0.0 | 0.00 | 0.04 | 0.04 | 97 | 1016.4 |
| 20260904123709 | 68 | 145 | 0.0 | 0.0 | 0.00 | 0.04 | 0.04 | 97 | 1016.6 |